カタログに戻る

PIAST-M

運用中科学SSO
NORAD 66758·PAYLOAD·🇵🇱 Poland

打ち上げ Nov 28, 2025 から Vandenberg Space Force Base

Loading…

次のパス (今後24時間)

TLE

最新Source: Space-Track

元期: Sep 14, 2026, 10:17 UTC

1 66758U 25276CW  26257.42906802  .00003831  00000-0  17595-3 0  9992
2 66758  97.4110 329.6645 0001957  60.4228 299.7203 15.20989414 43995

AllMySatでPIAST-Mをリアルタイム追跡

Download on the App Store